Location: Unspecified
(0.0000°N, 0.0000°E)
Time: 07:12:54
(UTC+00:00)

Vela 2A - Visible Passes

Search period start: 13 July 2025 00:00
Search period end: 23 July 2025 00:00
Orbit: 52381 x 154103 km, 51.3° (Epoch: 04 July)

Date Brightness Start Highest point End Pass type
(mag) Time Alt. Az. Time Alt. Az. Time Alt. Az.
13 Jul ? 05:30:04 10° SE 13:07:17 82° NNE 19:43:41 10° WNW visible
14 Jul ? 13:29:12 10° NE 19:11:52 37° N 00:45:05 10° NW visible
15 Jul ? 17:09:29 10° NE 22:54:07 55° N 04:17:44 10° WNW visible
16 Jul ? 20:10:49 10° E 01:24:26 51° SSE 18:16:03 10° W visible
18 Jul ? 12:05:25 10° NE 17:47:11 37° N 23:33:32 10° NW visible
19 Jul ? 16:22:59 10° NE 22:05:59 50° N 03:26:48 10° WNW visible
20 Jul ? 18:59:54 10° E 00:48:33 78° SSE 08:21:26 10° SW daylight
22 Jul ? 10:36:03 10° NE 16:15:54 40° N 22:18:27 10° NW visible
